• In Belgien
  • Länderverzeichnis
  • Für 7 Tage
  • Wassertemperatur
  • Satellitenkarten
  • Wetterkarte
  • Widgets
  • user-avatar
    Anmelden

    Stündliche Wetter Asse

    Heute, 22 November, Mittwoch

    Zeit Temperatur Niederschläge Wind Luftdruck Luftfeuchtigkeit
    00:00 +9°C° 0 mm 8 m/S 753 mmHg 85%
    01:00 +9°C° 0 mm 8 m/S 752 mmHg 86%
    02:00 +9°C° 0 mm 8 m/S 752 mmHg 87%
    03:00 +9°C° 0 mm 7 m/S 752 mmHg 87%
    04:00 +9°C° 0 mm 7 m/S 752 mmHg 87%
    05:00 +9°C° 0 mm 7 m/S 752 mmHg 86%
    06:00 +9°C° 0 mm 7 m/S 751 mmHg 86%
    07:00 +9°C° 0 mm 7 m/S 751 mmHg 85%
    08:00 +8°C° 0 mm 7 m/S 751 mmHg 84%
    09:00 +8°C° 0 mm 7 m/S 751 mmHg 83%
    10:00 +9°C° 0 mm 7 m/S 751 mmHg 77%
    11:00 +10°C° 0 mm 8 m/S 751 mmHg 71%
    12:00 +11°C° 0 mm 8 m/S 750 mmHg 64%
    13:00 +11°C° 0 mm 7 m/S 750 mmHg 63%
    14:00 +11°C° 0 mm 7 m/S 749 mmHg 62%
    15:00 +11°C° 0 mm 7 m/S 749 mmHg 60%
    16:00 +10°C° 0 mm 7 m/S 748 mmHg 59%
    17:00 +10°C° 0 mm 8 m/S 748 mmHg 59%
    18:00 +9°C° 0 mm 8 m/S 748 mmHg 58%
    19:00 +9°C° 0 mm 8 m/S 747 mmHg 58%
    20:00 +9°C° 0 mm 8 m/S 747 mmHg 58%
    21:00 +10°C° 0 mm 8 m/S 747 mmHg 57%
    22:00 +9°C° 0 mm 8 m/S 746 mmHg 58%
    23:00 +9°C° 0 mm 8 m/S 746 mmHg 58%

    Morgen, 23 November, Donnerstag

    Zeit Temperatur Niederschläge Wind Luftdruck Luftfeuchtigkeit
    00:00 +9°C° 0 mm 8 m/S 746 mmHg 58%
    01:00 +10°C° 0 mm 9 m/S 745 mmHg 58%
    02:00 +9°C° 0 mm 10 m/S 745 mmHg 59%
    03:00 +11°C° 0 mm 10 m/S 744 mmHg 60%
    04:00 +11°C° 0 mm 11 m/S 744 mmHg 61%
    05:00 +11°C° 0 mm 11 m/S 744 mmHg 62%
    06:00 +12°C° 0 mm 11 m/S 744 mmHg 63%
    07:00 +12°C° 0,1 mm 11 m/S 745 mmHg 65%
    08:00 +12°C° 0,1 mm 11 m/S 745 mmHg 67%
    09:00 +13°C° 0,1 mm 11 m/S 746 mmHg 70%
    10:00 +13°C° 0,2 mm 11 m/S 746 mmHg 71%
    11:00 +13°C° 0,2 mm 11 m/S 747 mmHg 73%
    12:00 +13°C° 0,2 mm 10 m/S 747 mmHg 74%
    13:00 +12°C° 0,3 mm 9 m/S 748 mmHg 74%
    14:00 +12°C° 0,3 mm 8 m/S 749 mmHg 73%
    15:00 +11°C° 0,3 mm 6 m/S 750 mmHg 72%
    16:00 +10°C° 0 mm 6 m/S 750 mmHg 74%
    17:00 +10°C° 0 mm 5 m/S 751 mmHg 75%
    18:00 +9°C° 0 mm 5 m/S 752 mmHg 77%
    19:00 +10°C° 0 mm 4 m/S 752 mmHg 79%
    20:00 +10°C° 0 mm 4 m/S 752 mmHg 81%
    21:00 +10°C° 0 mm 4 m/S 751 mmHg 83%
    22:00 +10°C° 0,4 mm 5 m/S 751 mmHg 83%
    23:00 +11°C° 0,4 mm 7 m/S 751 mmHg 83%

    übermorgen, 24 November, Freitag

    Zeit Temperatur Niederschläge Wind Luftdruck Luftfeuchtigkeit
    00:00 +12°C° 0,4 mm 9 m/S 751 mmHg 82%
    01:00 +12°C° 0,3 mm 8 m/S 751 mmHg 83%
    02:00 +12°C° 0,3 mm 7 m/S 751 mmHg 83%
    03:00 +11°C° 0,3 mm 7 m/S 751 mmHg 83%
    04:00 +11°C° 0,3 mm 6 m/S 751 mmHg 84%
    05:00 +10°C° 0,3 mm 5 m/S 751 mmHg 86%
    06:00 +10°C° 0,3 mm 5 m/S 752 mmHg 87%
    07:00 +11°C° 0,2 mm 4 m/S 752 mmHg 88%
    08:00 +11°C° 0,2 mm 4 m/S 752 mmHg 88%
    09:00 +11°C° 0,2 mm 4 m/S 752 mmHg 89%
    10:00 +10°C° 0,8 mm 4 m/S 752 mmHg 89%
    11:00 +10°C° 0,8 mm 4 m/S 752 mmHg 89%
    12:00 +10°C° 0,8 mm 4 m/S 752 mmHg 89%
    13:00 +10°C° 0,7 mm 4 m/S 752 mmHg 89%
    14:00 +10°C° 0,7 mm 4 m/S 751 mmHg 90%
    15:00 +10°C° 0,7 mm 4 m/S 751 mmHg 90%
    16:00 +10°C° 0,7 mm 4 m/S 751 mmHg 90%
    17:00 +10°C° 0,7 mm 5 m/S 750 mmHg 89%
    18:00 +10°C° 0,7 mm 6 m/S 750 mmHg 89%
    19:00 +10°C° 1,2 mm 6 m/S 749 mmHg 89%
    20:00 +10°C° 1,2 mm 6 m/S 749 mmHg 90%
    21:00 +10°C° 1,2 mm 6 m/S 748 mmHg 90%
    22:00 +10°C° 0,9 mm 7 m/S 747 mmHg 90%
    23:00 +11°C° 0,9 mm 7 m/S 746 mmHg 89%

    25 November, Samstag

    Zeit Temperatur Niederschläge Wind Luftdruck Luftfeuchtigkeit
    00:00 +11°C° 0,9 mm 7 m/S 745 mmHg 89%
    01:00 +10°C° 0,5 mm 8 m/S 745 mmHg 85%
    02:00 +8°C° 0,5 mm 9 m/S 744 mmHg 81%
    03:00 +8°C° 0,5 mm 10 m/S 744 mmHg 76%
    04:00 +7°C° 0,1 mm 10 m/S 745 mmHg 75%
    05:00 +6°C° 0,1 mm 10 m/S 746 mmHg 74%
    06:00 +4°C° 0,1 mm 11 m/S 747 mmHg 73%
    07:00 +3°C° 0,1 mm 10 m/S 748 mmHg 71%
    08:00 +3°C° 0,1 mm 9 m/S 750 mmHg 68%
    09:00 +3°C° 0,1 mm 9 m/S 752 mmHg 66%
    10:00 +3°C° 0,1 mm 9 m/S 752 mmHg 62%
    11:00 +3°C° 0,1 mm 9 m/S 753 mmHg 59%
    12:00 +5°C° 0,1 mm 9 m/S 754 mmHg 55%
    13:00 +4°C° 0,1 mm 8 m/S 754 mmHg 56%
    14:00 +4°C° 0,1 mm 7 m/S 755 mmHg 57%
    15:00 +4°C° 0,1 mm 6 m/S 755 mmHg 59%
    16:00 +3°C° 0,1 mm 6 m/S 755 mmHg 60%
    17:00 +3°C° 0,1 mm 7 m/S 755 mmHg 62%
    18:00 +3°C° 0,1 mm 7 m/S 755 mmHg 64%
    19:00 +3°C° 0,1 mm 7 m/S 756 mmHg 65%
    20:00 +2°C° 0,1 mm 6 m/S 756 mmHg 66%
    21:00 +2°C° 0,1 mm 6 m/S 756 mmHg 68%
    22:00 +2°C° 0,1 mm 6 m/S 756 mmHg 69%
    23:00 +2°C° 0,1 mm 6 m/S 757 mmHg 70%

    26 November, Sonntag

    Zeit Temperatur Niederschläge Wind Luftdruck Luftfeuchtigkeit
    00:00 +2°C° 0,1 mm 7 m/S 757 mmHg 71%
    01:00 +2°C° 0 mm 7 m/S 756 mmHg 71%
    02:00 +2°C° 0 mm 7 m/S 756 mmHg 71%
    03:00 +1°C° 0 mm 8 m/S 756 mmHg 71%
    04:00 +1°C° 0 mm 8 m/S 756 mmHg 71%
    05:00 +1°C° 0 mm 8 m/S 756 mmHg 72%
    06:00 +2°C° 0 mm 7 m/S 757 mmHg 73%
    07:00 +3°C° 0,1 mm 7 m/S 757 mmHg 73%
    08:00 +3°C° 0,1 mm 7 m/S 758 mmHg 73%
    09:00 +3°C° 0,1 mm 7 m/S 758 mmHg 73%
    10:00 +4°C° 0,1 mm 7 m/S 758 mmHg 72%
    11:00 +5°C° 0,1 mm 7 m/S 758 mmHg 71%
    12:00 +5°C° 0,1 mm 7 m/S 758 mmHg 70%
    13:00 +5°C° 0,2 mm 7 m/S 758 mmHg 71%
    14:00 +5°C° 0,2 mm 6 m/S 758 mmHg 73%
    15:00 +5°C° 0,2 mm 6 m/S 759 mmHg 74%
    16:00 +4°C° 0,5 mm 6 m/S 759 mmHg 75%
    17:00 +4°C° 0,5 mm 6 m/S 759 mmHg 77%
    18:00 +4°C° 0,5 mm 6 m/S 759 mmHg 78%
    19:00 +3°C° 0,2 mm 5 m/S 760 mmHg 78%
    20:00 +3°C° 0,2 mm 5 m/S 760 mmHg 78%
    21:00 +2°C° 0,2 mm 5 m/S 761 mmHg 78%
    22:00 +2°C° 0 mm 5 m/S 761 mmHg 78%
    23:00 +2°C° 0 mm 5 m/S 761 mmHg 79%

    27 November, Montag

    Zeit Temperatur Niederschläge Wind Luftdruck Luftfeuchtigkeit
    00:00 +2°C° 0 mm 5 m/S 761 mmHg 79%
    01:00 +1°C° 0 mm 5 m/S 762 mmHg 79%
    02:00 +1°C° 0 mm 4 m/S 762 mmHg 80%
    03:00 +1°C° 0 mm 4 m/S 762 mmHg 80%
    04:00 +1°C° 0 mm 4 m/S 762 mmHg 81%
    05:00 0°C° 0 mm 4 m/S 762 mmHg 82%
    06:00 0°C° 0 mm 4 m/S 763 mmHg 83%
    07:00 +1°C° 0 mm 4 m/S 762 mmHg 81%
    08:00 +1°C° 0 mm 5 m/S 762 mmHg 80%
    09:00 +1°C° 0 mm 5 m/S 762 mmHg 78%
    10:00 +2°C° 0 mm 6 m/S 762 mmHg 77%
    11:00 +3°C° 0 mm 6 m/S 761 mmHg 75%
    12:00 +4°C° 0 mm 7 m/S 760 mmHg 73%
    13:00 +4°C° 0 mm 7 m/S 760 mmHg 74%
    14:00 +4°C° 0 mm 7 m/S 759 mmHg 75%
    15:00 +4°C° 0 mm 7 m/S 758 mmHg 75%
    16:00 +4°C° 0 mm 7 m/S 757 mmHg 75%
    17:00 +2°C° 0 mm 8 m/S 757 mmHg 74%
    18:00 +2°C° 0 mm 8 m/S 756 mmHg 74%
    19:00 +2°C° 0 mm 8 m/S 755 mmHg 74%
    20:00 +2°C° 0 mm 8 m/S 754 mmHg 74%
    21:00 +2°C° 0 mm 8 m/S 754 mmHg 74%
    22:00 +2°C° 0,1 mm 8 m/S 753 mmHg 76%
    23:00 +2°C° 0,1 mm 9 m/S 752 mmHg 77%
    Mehr zeigen